Weather History for Bullsbrook Pearce, WE

Change the Weather History Date:

Saturday, February 2, 2013

  Actual Average (YPPH) Record (YPPH)
Temperature  
Mean Temperature 83 °F -  
Max Temperature 103 °F 87 °F 104 °F (2007)
Min Temperature 63 °F 61 °F 50 °F (2006)
Cooling Degree Days 18    
Growing Degree Days 33 (Base 50)    
Moisture  
Dew Point 38 °F    
Average Humidity 20    
Maximum Humidity 52    
Minimum Humidity 4    
Precipitation  
Precipitation 0.00 in - - ()
Sea Level Pressure  
Sea Level Pressure 29.97 in    
Wind  
Wind Speed 6 mph ()    
Max Wind Speed 20 mph    
Max Gust Speed -    
Visibility 6.2 miles    
Events      
Averages and records for this station are not official NWS values.
T = Trace of Precipitation, MM = Missing Value Source: Averaged Metar Reports

Daily Weather History Graph

Daily Weather History Graph

Search for Another Location

Airport:

Trip Planner

Search our weather history database for the weather conditions in past years. The results will help you decide how hot, cold, wet, or windy it might be!

Date:

Astronomy

Feb. 02, 2013 Rise Set
Actual Time 5:42 AM AWST 7:16 PM AWST
Civil Twilight 5:16 AM AWST 7:42 PM AWST
Nautical Twilight 4:44 AM AWST 8:14 PM AWST
Astronomical Twilight 4:11 AM AWST 8:46 PM AWST
Moon 10:45 PM AWST (2/2) 11:24 AM AWST (2/2)
Length of Visible Light 14h 26m
Length of Day
13h 34m
Waning Gibbous, 66% of the Moon is Illuminated
Feb 2
Waning Gibbous
Feb 3
Last Quarter
Feb 10
New
Feb 18
First Quarter
Feb 26
Full

Hourly Weather History & Observations

Time (AWST) Temp. Dew Point Humidity Pressure Visibility Wind Dir Wind Speed Gust Speed Precip Events Conditions
12:00 AM 69 °F 47 °F 34% 30.02 in - NNW 4.6 mph - -  
12:00 AM 69.8 °F 46.4 °F 43% 30.01 in 6.2 mi NNW 4.6 mph - N/A   Unknown
1:00 AM 66.2 °F 48.2 °F 52% 30.01 in 6.2 mi West 2.3 mph - N/A   Unknown
2:00 AM 64.4 °F 46.4 °F 52% 29.98 in 6.2 mi SE 1.2 mph - N/A   Unknown
2:26 AM 75.2 °F 42.8 °F 31% 29.98 in 6.2 mi ENE 6.9 mph - N/A   Unknown
3:00 AM 78 °F 35 °F 12% 29.98 in - East 9.2 mph - -  
3:00 AM 78.8 °F 35.6 °F 21% 29.98 in 6.2 mi East 9.2 mph - N/A   Unknown
4:00 AM 77.0 °F 35.6 °F 22% 29.98 in 6.2 mi East 11.5 mph - N/A   Unknown
5:00 AM 75.2 °F 35.6 °F 24% 29.98 in 6.2 mi ENE 4.6 mph - N/A   Unknown
6:00 AM 73 °F 37 °F 17% 30.01 in - NNE 3.5 mph - -  
6:00 AM 73.4 °F 37.4 °F 27% 30.01 in 6.2 mi NNE 3.5 mph - N/A   Unknown
7:00 AM 78.8 °F 37.4 °F 23% 30.01 in 6.2 mi ENE 8.1 mph - N/A   Unknown
8:00 AM 82.4 °F 39.2 °F 21% 30.01 in 6.2 mi ENE 11.5 mph - N/A   Unknown
9:00 AM 87 °F 38 °F 10% 30.03 in - NNE 10.4 mph - -  
9:00 AM 87.8 °F 39.2 °F 18% 30.04 in 6.2 mi NNE 10.4 mph - N/A   Unknown
10:00 AM 91.4 °F 37.4 °F 15% 30.01 in 6.2 mi ENE 8.1 mph - N/A   Unknown
11:00 AM 96.8 °F 35.6 °F 12% 30.01 in 6.2 mi ENE 6.9 mph - N/A   Unknown
12:00 PM 96 °F 33 °F 5% 29.99 in - North 3.5 mph - -  
12:00 PM 95.0 °F 33.8 °F 12% 29.98 in 6.2 mi North 3.5 mph - N/A   Unknown
1:00 PM 98.6 °F 35.6 °F 11% 29.95 in 6.2 mi NNW 4.6 mph - N/A   Unknown
2:00 PM 100.4 °F 33.8 °F 10% 29.92 in 6.2 mi WNW 8.1 mph - N/A   Unknown
3:00 PM 101 °F 32 °F 4% 29.90 in - NW 5.8 mph - -  
3:00 PM 100.4 °F 32.0 °F 9% 29.89 in 6.2 mi NW 5.8 mph - N/A   Unknown
4:00 PM 100.4 °F 33.8 °F 10% 29.89 in 6.2 mi SW 16.1 mph - N/A   Unknown
5:00 PM 96.8 °F 33.8 °F 11% 29.89 in 6.2 mi SW 19.6 mph - N/A   Unknown
6:00 PM 94 °F 35 °F 6% 29.90 in - SSW 15.0 mph - -  
6:00 PM 93.2 °F 35.6 °F 13% 29.89 in 6.2 mi SSW 15.0 mph - N/A   Unknown
7:00 PM 87.8 °F 35.6 °F 16% 29.92 in 6.2 mi SW 11.5 mph - N/A   Unknown
8:00 PM 84.2 °F 37.4 °F 19% 29.92 in 6.2 mi South 5.8 mph - N/A   Unknown
9:00 PM 82 °F 38 °F 12% 29.94 in - South 5.8 mph - -  
9:00 PM 82.4 °F 39.2 °F 21% 29.95 in 6.2 mi South 5.8 mph - N/A   Unknown
10:00 PM 75.2 °F 42.8 °F 31% 29.95 in 6.2 mi Calm Calm - N/A   Unknown
11:00 PM 71.6 °F 42.8 °F 35% 29.92 in 6.2 mi Calm Calm - N/A   Unknown